Powrót do katalogu

NAVSTAR 53

USA 175

AktywnyNawigacjaMEO
NORAD 28129·PAYLOAD·🇺🇸 United States

Wystrzelony Dec 21, 2003 z Cape Canaveral Space Force Station

Loading…

Następne Przeloty (najbliższe 24 godziny)

TLE

ŚwieżeSource: Space-Track

Epoka: Sep 14, 2026, 07:31 UTC

1 28129U 03058A   26257.31384956 -.00000105  00000-0  00000-0 0  9996
2 28129  55.0765  19.9753 0000920 282.1273  77.8641  1.92678495166188

Śledź NAVSTAR 53 w czasie rzeczywistym z AllMySat

Download on the App Store